FW4702 Weather Reports


Display with metric or nautical units.
time (UTC)temp
F
wind
direction
speed
MPH
gust
MPH
rain 1hr
in
rain 24hr
in
rain mn
in
humidity
%
barometer
mb
20260508122057 50 0 0.0 0.0 0.00 0.01 0.00 96 1018.4
20260508121557 50 0 0.0 0.0 0.00 0.01 0.00 96 1018.3
20260508121058 49 0 0.0 0.0 0.00 0.01 0.00 96 1018.3
20260508120557 49 0 0.0 0.0 0.00 0.01 0.00 96 1018.3
20260508120057 49 0 0.0 0.0 0.00 0.01 0.00 96 1018.2
20260508115557 48 0 0.0 0.0 0.00 0.01 0.00 96 1018.2
20260508115059 48 0 0.0 0.0 0.00 0.01 0.00 96 1018.2
20260508114602 47 0 0.0 0.0 0.00 0.01 0.00 96 1018.1
20260508114057 47 0 0.0 0.0 0.00 0.01 0.00 96 1018.1
20260508113557 47 0 0.0 0.0 0.00 0.01 0.00 96 1018.0
20260508113058 46 0 0.0 0.0 0.00 0.01 0.00 96 1018.0
20260508112557 47 0 0.0 0.0 0.00 0.01 0.00 96 1017.8
20260508112056 47 0 0.0 0.0 0.00 0.01 0.00 96 1017.8
20260508111556 46 0 0.0 0.0 0.00 0.01 0.00 96 1017.8
20260508111057 47 0 0.0 0.0 0.00 0.01 0.00 95 1017.7
20260508110556 47 0 0.0 0.0 0.00 0.01 0.00 95 1017.5
20260508110130 46 0 0.0 0.0 0.00 0.01 0.00 95 1017.4
20260508105556 46 0 0.0 0.0 0.00 0.01 0.00 95 1017.3
20260508105057 46 0 0.0 0.0 0.00 0.01 0.00 95 1017.3
20260508104604 46 0 0.0 0.0 0.00 0.01 0.00 95 1017.3
20260508104056 47 0 0.0 0.0 0.00 0.01 0.00 95 1017.2
20260508103557 47 0 0.0 0.0 0.00 0.01 0.00 95 1017.1
20260508103058 47 0 0.0 0.0 0.00 0.01 0.00 95 1017.1
20260508102557 47 0 0.0 0.0 0.00 0.01 0.00 94 1017.0
20260508102057 47 0 0.0 0.0 0.00 0.01 0.00 94 1016.9
20260508101600 47 0 0.0 0.0 0.00 0.01 0.00 94 1017.0
20260508101057 47 0 0.0 0.0 0.00 0.01 0.00 94 1016.8
20260508100556 48 0 0.0 0.0 0.00 0.01 0.00 94 1016.8
20260508100100 48 0 0.0 0.0 0.00 0.01 0.00 93 1016.9
20260508095600 48 0 0.0 1.0 0.00 0.02 0.00 94 1016.8
20260508095056 48 0 0.0 1.0 0.00 0.02 0.00 93 1016.7
20260508094600 48 0 0.0 0.0 0.00 0.02 0.00 93 1016.5
20260508094057 48 0 0.0 0.0 0.00 0.02 0.00 93 1016.5
20260508093558 48 0 0.0 0.0 0.00 0.02 0.00 92 1016.5
20260508093102 49 0 0.0 0.0 0.00 0.02 0.00 92 1016.5
20260508092601 49 0 0.0 0.0 0.00 0.02 0.00 92 1016.3
20260508092057 49 0 0.0 0.0 0.00 0.02 0.00 91 1016.4
20260508091556 49 0 0.0 1.0 0.00 0.02 0.00 91 1016.5
20260508091057 50 0 0.0 2.0 0.00 0.02 0.00 89 1016.5
20260508090557 50 317 0.0 2.0 0.00 0.02 0.00 88 1016.5
20260508090110 50 317 1.0 2.0 0.00 0.02 0.00 87 1016.3
20260508085556 50 0 0.0 2.0 0.00 0.26 0.00 87 1016.4
20260508085056 50 316 0.0 2.0 0.00 0.26 0.00 88 1016.4
20260508084601 50 316 0.0 2.0 0.00 0.26 0.00 88 1016.4
20260508084059 50 304 0.0 2.0 0.00 0.26 0.00 88 1016.4
20260508083558 50 314 0.0 2.0 0.00 0.26 0.00 89 1016.3
20260508083055 50 0 0.0 1.0 0.00 0.26 0.00 89 1016.2
20260508082557 50 0 0.0 1.0 0.00 0.26 0.00 90 1016.2
20260508082057 50 0 0.0 1.0 0.00 0.26 0.00 91 1016.2
20260508081614 50 0 0.0 2.0 0.00 0.26 0.00 91 1016.2
20260508081058 50 0 0.0 2.0 0.00 0.26 0.00 91 1016.2
20260508080557 50 0 0.0 2.0 0.00 0.26 0.00 90 1016.1
20260508080100 50 0 0.0 2.0 0.00 0.26 0.00 90 1016.2
20260508075558 51 0 0.0 2.0 0.00 0.29 0.00 89 1016.1
20260508075056 51 0 0.0 1.0 0.00 0.29 0.00 89 1016.1
20260508074557 51 310 0.0 2.0 0.00 0.29 0.00 90 1016.0
20260508074102 51 0 0.0 2.0 0.00 0.29 0.00 90 1016.3
20260508073558 51 0 0.0 3.0 0.00 0.29 0.00 89 1016.2
20260508073057 51 0 0.0 3.0 0.00 0.29 0.00 90 1016.2
20260508072557 51 302 1.0 3.0 0.00 0.29 0.00 90 1016.2
20260508072059 51 309 0.0 2.0 0.00 0.29 0.00 92 1016.2
20260508071555 50 309 0.0 2.0 0.00 0.29 0.00 93 1016.2
20260508071100 50 309 0.0 1.0 0.00 0.29 0.00 94 1016.2
20260508070556 50 0 0.0 0.0 0.00 0.29 0.00 94 1016.3
20260508070057 50 0 0.0 0.0 0.00 0.29 0.00 95 1016.4
20260508065558 50 0 0.0 0.0 0.00 0.29 0.00 95 1016.5
20260508065056 50 0 0.0 0.0 0.00 0.29 0.00 95 1016.4
20260508064556 50 0 0.0 0.0 0.00 0.29 0.00 95 1016.4
20260508064058 50 0 0.0 0.0 0.00 0.29 0.00 94 1016.5
20260508063556 50 0 0.0 0.0 0.00 0.29 0.00 94 1016.6
20260508063055 50 0 0.0 0.0 0.00 0.29 0.00 94 1016.5
20260508062556 50 0 0.0 0.0 0.00 0.29 0.00 94 1016.6
20260508062056 50 0 0.0 0.0 0.00 0.29 0.00 94 1016.7
20260508061606 50 0 0.0 0.0 0.00 0.29 0.00 94 1016.7
20260508061058 50 0 0.0 0.0 0.00 0.29 0.00 93 1016.8
20260508060557 51 0 0.0 0.0 0.00 0.29 0.00 94 1016.7
20260508060057 51 0 0.0 0.0 0.00 0.29 0.00 94 1016.8
20260508055557 51 0 0.0 0.0 0.00 0.29 0.00 93 1016.9
20260508055057 51 0 0.0 0.0 0.00 0.29 0.00 93 1016.8
20260508054632 51 0 0.0 0.0 0.00 0.29 0.00 94 1016.9
20260508054056 51 0 0.0 0.0 0.00 0.29 0.00 94 1017.0
20260508053558 51 0 0.0 0.0 0.00 0.29 0.00 94 1017.0
20260508053059 52 0 0.0 0.0 0.00 0.29 0.00 94 1017.0
20260508052558 52 0 0.0 0.0 0.00 0.29 0.00 94 1017.1
20260508052057 52 0 0.0 0.0 0.00 0.29 0.00 94 1016.8
20260508051558 52 0 0.0 0.0 0.00 0.29 0.00 94 1016.7
20260508051057 51 0 0.0 0.0 0.00 0.29 0.00 94 1017.0
20260508050557 51 0 0.0 0.0 0.00 0.29 0.00 94 1016.9
20260508050057 51 0 0.0 1.0 0.00 0.29 0.00 94 1016.8
20260508045556 51 0 0.0 1.0 0.00 0.29 0.29 94 1016.7
20260508045056 51 0 0.0 1.0 0.00 0.29 0.29 95 1016.7
20260508044602 51 0 0.0 0.0 0.00 0.29 0.29 94 1016.6
20260508044100 51 0 0.0 0.0 0.00 0.29 0.29 94 1016.5
20260508043557 51 0 0.0 0.0 0.00 0.29 0.29 94 1016.4
20260508043055 51 0 0.0 0.0 0.00 0.29 0.29 94 1016.3
20260508042557 51 0 0.0 0.0 0.00 0.29 0.29 94 1016.4
20260508042057 51 0 0.0 0.0 0.00 0.29 0.29 93 1016.4
20260508041600 51 0 0.0 0.0 0.00 0.29 0.29 93 1016.4
20260508041100 51 0 0.0 0.0 0.00 0.29 0.29 93 1016.4
20260508040557 52 0 0.0 0.0 0.00 0.29 0.29 93 1016.4
20260508040100 52 0 0.0 0.0 0.00 0.29 0.29 93 1016.4
20260508035556 52 0 0.0 0.0 0.00 0.30 0.29 93 1016.4
20260508035057 52 0 0.0 0.0 0.00 0.30 0.29 93 1016.4
20260508034602 52 0 0.0 0.0 0.00 0.30 0.29 93 1016.4
20260508034056 52 0 0.0 0.0 0.00 0.30 0.29 93 1016.4
20260508033556 52 0 0.0 0.0 0.00 0.30 0.29 92 1016.4
20260508033057 52 0 0.0 0.0 0.00 0.30 0.29 92 1016.5
20260508032558 52 0 0.0 0.0 0.00 0.30 0.29 92 1016.4
20260508032056 53 0 0.0 0.0 0.00 0.30 0.29 92 1016.4
20260508031602 53 0 0.0 0.0 0.00 0.30 0.29 92 1016.4
20260508031059 53 0 0.0 0.0 0.00 0.30 0.29 92 1016.4
20260508030558 53 0 0.0 0.0 0.00 0.30 0.29 92 1016.3
20260508030112 53 0 0.0 0.0 0.00 0.30 0.29 92 1016.3
20260508025557 53 0 0.0 0.0 0.00 0.37 0.29 92 1016.4
20260508025058 53 0 0.0 0.0 0.00 0.37 0.29 92 1016.3
20260508024606 53 0 0.0 0.0 0.00 0.37 0.29 91 1016.3
20260508024057 54 0 0.0 0.0 0.00 0.37 0.29 91 1016.2
20260508023558 54 0 0.0 0.0 0.00 0.37 0.29 90 1016.3
20260508023058 54 0 0.0 0.0 0.00 0.37 0.29 89 1016.2
20260508022556 54 0 0.0 0.0 0.00 0.37 0.29 89 1016.2
20260508022057 54 0 0.0 0.0 0.00 0.37 0.29 89 1016.2
20260508021616 54 0 0.0 0.0 0.00 0.37 0.29 90 1016.2
20260508021059 54 0 0.0 0.0 0.00 0.37 0.29 89 1016.1
20260508020556 55 0 0.0 0.0 0.00 0.37 0.29 88 1016.1
20260508020059 55 0 0.0 0.0 0.00 0.37 0.29 89 1016.1
20260508015556 55 0 0.0 0.0 0.00 0.37 0.29 90 1016.1
20260508015056 55 0 0.0 0.0 0.00 0.37 0.29 89 1016.1
20260508014556 55 0 0.0 0.0 0.00 0.37 0.29 88 1015.8
20260508014057 56 0 0.0 0.0 0.00 0.37 0.29 87 1015.8
20260508013556 56 0 0.0 0.0 0.00 0.37 0.29 87 1015.9
20260508013110 55 0 0.0 0.0 0.00 0.37 0.29 89 1015.6
20260508012557 55 0 0.0 0.0 0.00 0.37 0.29 90 1015.8
20260508012057 56 0 0.0 0.0 0.00 0.37 0.29 89 1015.6
20260508011602 56 0 0.0 0.0 0.00 0.37 0.29 88 1015.7
20260508011101 56 0 0.0 0.0 0.00 0.37 0.29 87 1015.6
20260508010557 57 0 0.0 0.0 0.00 0.37 0.29 86 1015.5
20260508010055 57 0 0.0 0.0 0.00 0.37 0.29 86 1015.4
20260508005559 57 0 0.0 0.0 0.00 0.37 0.29 87 1015.3
20260508005100 57 0 0.0 0.0 0.00 0.37 0.29 87 1015.5
20260508004600 57 0 0.0 0.0 0.00 0.37 0.29 88 1015.5
20260508004057 58 0 0.0 0.0 0.00 0.37 0.29 87 1015.6
20260508003556 58 0 0.0 0.0 0.00 0.37 0.29 86 1015.5
20260508003105 59 0 0.0 0.0 0.00 0.37 0.29 84 1015.4
20260508002557 59 0 0.0 0.0 0.00 0.37 0.29 83 1015.4
20260508002056 60 0 0.0 1.0 0.00 0.37 0.29 82 1015.2
20260508001558 60 0 0.0 1.0 0.00 0.37 0.29 82 1015.2
20260508001057 61 0 0.0 1.0 0.00 0.37 0.29 80 1015.1
20260508000556 61 0 0.0 0.0 0.00 0.37 0.29 79 1014.9
20260508000057 62 0 0.0 0.0 0.00 0.37 0.29 77 1014.9
20260507235557 62 0 0.0 2.0 0.00 0.38 0.29 74 1014.8
20260507235057 63 0 0.0 2.0 0.00 0.38 0.29 66 1014.8
20260507234557 63 0 0.0 2.0 0.00 0.38 0.29 62 1014.8
20260507234057 64 0 0.0 6.0 0.00 0.38 0.29 61 1014.7
20260507233559 65 309 1.0 6.0 0.00 0.38 0.29 58 1014.7
20260507233055 65 296 0.0 5.0 0.00 0.38 0.29 58 1014.7
20260507232556 65 312 1.0 5.0 0.00 0.38 0.29 58 1014.7
20260507232056 65 319 0.0 4.0 0.00 0.38 0.29 57 1014.7
20260507231559 66 272 0.0 4.0 0.00 0.38 0.29 57 1014.8
20260507231056 66 0 0.0 6.0 0.00 0.38 0.29 57 1014.8
20260507230557 66 0 1.0 6.0 0.00 0.38 0.29 57 1014.8
20260507230100 66 38 2.0 6.0 0.00 0.38 0.29 56 1014.8
20260507225557 66 360 1.0 5.0 0.00 0.44 0.29 57 1014.7
20260507225056 66 312 2.0 5.0 0.00 0.44 0.29 56 1014.9
20260507224604 66 273 1.0 4.0 0.00 0.44 0.29 57 1014.8
20260507224057 67 288 1.0 4.0 0.00 0.44 0.29 57 1014.8
20260507223600 66 0 1.0 5.0 0.00 0.44 0.29 59 1014.9
20260507223100 67 0 1.0 6.0 0.00 0.44 0.29 57 1014.8
20260507222559 67 352 1.0 7.0 0.00 0.44 0.29 57 1014.8
20260507222057 67 299 2.0 7.0 0.00 0.44 0.29 56 1014.8
20260507221557 66 59 0.0 3.0 0.00 0.44 0.29 58 1014.7
20260507221057 67 25 1.0 6.0 0.00 0.44 0.29 56 1014.7
20260507220556 67 298 1.0 6.0 0.00 0.44 0.29 57 1014.8
20260507220055 67 319 1.0 5.0 0.00 0.44 0.29 58 1014.8
20260507215559 67 285 1.0 5.0 0.00 0.52 0.29 58 1014.7
20260507215056 67 291 1.0 8.0 0.00 0.52 0.29 58 1014.7
20260507214555 67 0 1.0 8.0 0.00 0.52 0.29 60 1014.7
20260507214059 67 0 0.0 6.0 0.00 0.52 0.29 61 1014.6
20260507213556 67 292 1.0 7.0 0.00 0.52 0.29 59 1014.7
20260507213055 67 284 2.0 7.0 0.00 0.52 0.29 57 1014.6
20260507212557 66 360 1.0 6.0 0.00 0.52 0.29 57 1014.7
20260507212056 67 5 2.0 6.0 0.00 0.52 0.29 56 1014.7
20260507211557 67 0 2.0 5.0 0.00 0.52 0.29 57 1014.6
20260507211057 67 308 0.0 3.0 0.00 0.52 0.29 57 1014.6
20260507210556 67 334 1.0 5.0 0.00 0.52 0.29 60 1014.6
20260507210119 67 313 1.0 5.0 0.00 0.52 0.29 59 1014.6
20260507205557 66 316 0.0 4.0 0.00 1.08 0.29 60 1014.6
20260507205057 66 11 1.0 8.0 0.00 1.08 0.29 60 1014.7
20260507204600 66 0 1.0 8.0 0.00 1.08 0.29 59 1014.6
20260507204102 66 306 1.0 7.0 0.00 1.08 0.29 60 1014.7
20260507203557 66 323 0.0 7.0 0.00 1.08 0.29 61 1014.6
20260507203059 66 336 1.0 7.0 0.00 1.08 0.29 59 1014.7
20260507202557 66 352 1.0 6.0 0.00 1.08 0.29 60 1014.8
20260507202058 66 0 2.0 6.0 0.00 1.08 0.29 61 1014.7
20260507201602 66 351 2.0 8.0 0.00 1.08 0.29 62 1014.8
20260507201059 65 302 0.0 9.0 0.00 1.08 0.29 62 1014.9
20260507200557 66 302 1.0 10.0 0.00 1.08 0.29 62 1014.9
20260507200106 66 316 1.0 10.0 0.00 1.08 0.29 61 1014.8
20260507195558 66 298 2.0 8.0 0.00 1.16 0.29 60 1014.8
20260507195056 67 0 1.0 8.0 0.00 1.16 0.29 61 1014.6
20260507194555 68 5 1.0 9.0 0.00 1.16 0.29 60 1014.7
20260507194100 67 0 0.0 9.0 0.00 1.16 0.29 67 1014.7
20260507193558 68 314 3.0 9.0 0.00 1.16 0.29 58 1014.7
20260507193123 68 344 1.0 6.0 0.00 1.16 0.29 60 1014.7
20260507192556 67 323 2.0 5.0 0.00 1.16 0.29 60 1014.7
20260507192100 67 269 1.0 10.0 0.00 1.16 0.29 59 1014.5
20260507191600 67 304 3.0 10.0 0.00 1.16 0.29 61 1014.5
20260507191100 67 302 2.0 10.0 0.00 1.16 0.29 60 1014.6
20260507190556 67 51 2.0 8.0 0.00 1.16 0.29 60 1014.6
20260507190055 67 327 1.0 6.0 0.00 1.16 0.29 61 1014.6
20260507185556 67 317 1.0 5.0 0.00 1.31 0.29 61 1014.6
20260507185056 66 309 1.0 5.0 0.00 1.31 0.29 64 1014.6
20260507184559 65 0 1.0 5.0 0.00 1.31 0.29 66 1014.8
20260507184100 66 309 1.0 4.0 0.00 1.31 0.29 63 1014.7
20260507183556 66 81 2.0 6.0 0.00 1.31 0.29 62 1014.7
20260507183101 66 92 2.0 6.0 0.00 1.31 0.29 62 1014.7
20260507182557 66 9 1.0 6.0 0.00 1.31 0.29 63 1014.6
20260507182057 65 309 1.0 7.0 0.00 1.31 0.29 64 1014.7
20260507181557 65 0 3.0 7.0 0.00 1.31 0.29 65 1014.9
20260507181057 64 0 2.0 7.0 0.00 1.31 0.29 64 1014.8
20260507180558 64 0 2.0 6.0 0.00 1.31 0.29 64 1014.9
20260507180058 65 279 2.0 6.0 0.00 1.31 0.29 64 1015.0
20260507175559 65 285 1.0 10.0 0.00 1.67 0.29 64 1015.1
20260507175057 65 302 1.0 10.0 0.00 1.67 0.29 66 1015.1
20260507174605 64 319 4.0 10.0 0.00 1.67 0.29 65 1015.3
20260507174057 64 281 2.0 8.0 0.00 1.67 0.29 63 1015.5
20260507173556 64 17 2.0 8.0 0.00 1.67 0.29 65 1015.7
20260507173132 64 72 1.0 8.0 0.00 1.67 0.29 65 1015.7
20260507172557 63 46 4.0 8.0 0.00 1.67 0.29 65 1015.7
20260507172057 63 328 2.0 7.0 0.00 1.67 0.29 65 1015.9
20260507171601 64 325 2.0 8.0 0.00 1.67 0.29 66 1015.8
20260507171057 64 0 3.0 8.0 0.00 1.67 0.29 66 1015.9
20260507170559 63 332 1.0 11.0 0.00 1.67 0.29 66 1015.7
20260507170100 62 21 3.0 11.0 0.00 1.67 0.29 66 1015.8
20260507165556 63 0 3.0 11.0 0.00 1.68 0.29 65 1015.9
20260507165057 63 46 1.0 10.0 0.00 1.68 0.29 69 1016.0
20260507164608 62 32 2.0 11.0 0.00 1.68 0.29 66 1015.8
20260507164057 62 267 2.0 11.0 0.00 1.68 0.29 67 1015.9
20260507163558 62 316 3.0 8.0 0.00 1.68 0.29 68 1016.0
20260507163102 62 319 3.0 11.0 0.00 1.68 0.29 69 1016.1
20260507162601 61 35 2.0 11.0 0.00 1.68 0.29 70 1016.0
20260507162100 61 313 4.0 9.0 0.00 1.68 0.29 71 1015.9
20260507161610 61 269 2.0 9.0 0.00 1.68 0.29 72 1015.6
20260507161057 61 0 2.0 9.0 0.00 1.68 0.29 75 1015.8
20260507160557 60 29 2.0 9.0 0.00 1.68 0.29 72 1015.8
20260507160115 60 279 1.0 6.0 0.00 1.68 0.29 72 1015.8
20260507155556 60 50 2.0 8.0 0.00 1.68 0.29 71 1015.8
20260507155056 60 328 2.0 8.0 0.00 1.68 0.29 73 1015.8
20260507154556 60 87 2.0 8.0 0.01 1.68 0.29 77 1015.6
20260507154057 59 68 1.0 7.0 0.01 1.68 0.29 77 1015.7
20260507153556 58 33 2.0 9.0 0.01 1.68 0.29 75 1015.7
20260507153057 59 50 2.0 9.0 0.01 1.68 0.29 76 1015.8
20260507152557 58 38 3.0 9.0 0.01 1.68 0.29 76 1015.7
20260507152057 58 30 1.0 5.0 0.01 1.68 0.29 79 1015.8
20260507151557 58 68 1.0 5.0 0.01 1.68 0.29 81 1015.9
20260507151101 57 46 2.0 5.0 0.01 1.68 0.29 79 1015.7
20260507150557 57 51 0.0 8.0 0.01 1.68 0.29 82 1015.7
20260507150100 57 296 1.0 9.0 0.01 1.68 0.29 82 1015.6
20260507145557 57 325 2.0 9.0 0.01 1.68 0.29 83 1015.7
20260507145056 56 0 1.0 9.0 0.01 1.68 0.29 83 1015.6
20260507144606 56 0 1.0 8.0 0.00 1.67 0.28 84 1015.7
20260507144057 56 0 2.0 8.0 0.00 1.67 0.28 85 1015.7
20260507143557 56 259 1.0 7.0 0.00 1.67 0.28 86 1015.7
20260507143100 55 52 1.0 7.0 0.00 1.67 0.28 87 1015.7
20260507142556 55 309 2.0 5.0 0.00 1.67 0.28 87 1015.7
20260507142057 55 319 2.0 6.0 0.00 1.67 0.28 88 1015.6
20260507141615 55 88 2.0 6.0 0.00 1.67 0.28 88 1015.5
20260507141056 55 313 1.0 5.0 0.00 1.67 0.28 89 1015.4
20260507140557 55 352 2.0 5.0 0.00 1.67 0.28 89 1015.3
20260507135600 54 331 1.0 6.0 0.00 2.16 0.28 90 1015.1
20260507135057 54 300 1.0 5.0 0.00 2.16 0.28 91 1015.1
20260507134609 55 276 1.0 6.0 0.00 2.16 0.28 92 1015.0
20260507134057 54 28 1.0 6.0 0.00 2.16 0.28 91 1015.1
20260507133557 54 0 1.0 6.0 0.00 2.16 0.28 92 1015.0
20260507133108 54 328 1.0 6.0 0.00 2.16 0.28 92 1014.8
20260507132557 54 288 0.0 3.0 0.00 2.16 0.28 93 1014.6
20260507132056 54 0 1.0 7.0 0.00 2.16 0.28 93 1014.5
20260507131600 54 327 1.0 7.0 0.00 2.16 0.28 93 1014.4
20260507131057 54 304 2.0 6.0 0.00 2.16 0.28 94 1014.4
20260507130557 54 338 1.0 5.0 0.00 2.16 0.28 94 1014.3
20260507130058 54 322 1.0 5.0 0.00 2.16 0.28 94 1014.2
20260507125556 54 338 1.0 5.0 0.00 2.19 0.28 94 1014.3
20260507125056 54 24 0.0 4.0 0.00 2.19 0.28 95 1014.3
20260507124558 54 320 1.0 4.0 0.00 2.19 0.28 95 1014.3
20260507124057 54 0 0.0 3.0 0.00 2.19 0.28 95 1014.4
20260507123557 54 314 0.0 3.0 0.00 2.19 0.28 96 1014.2
20260507123056 54 0 0.0 3.0 0.00 2.19 0.28 95 1014.1
20260507122557 54 0 0.0 3.0 0.00 2.19 0.28 96 1014.1